Time,TemperatureF,DewpointF,PressureIn,WindDirection,WindDirectionDegrees,WindSpeedMPH,WindSpeedGustMPH,Humidity,HourlyPrecipIn,Conditions,Clouds,dailyrainin,SoftwareType,DateUTC
2013-08-02 00:02:00,62.0,-99.9,30.09,SSE,162,5.0,11.0,-999,-99.99,,,-99.99,,2013-08-02 07:02:00,
2013-08-02 00:33:00,61.0,-99.9,30.08,South,187,6.0,11.0,-999,-99.99,,,-99.99,,2013-08-02 07:33:00,
2013-08-02 00:44:00,61.0,-99.9,30.08,SSW,211,7.0,10.0,-999,-99.99,,,-99.99,,2013-08-02 07:44:00,
2013-08-02 00:53:00,61.0,-99.9,30.08,South,180,5.0,10.0,-999,-99.99,,,-99.99,,2013-08-02 07:53:00,
2013-08-02 01:02:00,61.0,-99.9,30.09,SE,146,5.0,11.0,-999,-99.99,,,-99.99,,2013-08-02 08:02:00,
2013-08-02 01:12:00,61.0,-99.9,30.09,SSE,164,7.0,11.0,-999,-99.99,,,-99.99,,2013-08-02 08:12:00,
2013-08-02 01:33:00,61.0,-99.9,30.09,South,186,5.0,9.0,-999,-99.99,,,-99.99,,2013-08-02 08:33:00,
2013-08-02 01:43:00,61.0,-99.9,30.09,South,180,5.0,8.0,-999,-99.99,,,-99.99,,2013-08-02 08:43:00,
2013-08-02 02:02:00,60.0,-99.9,30.09,SSW,203,6.0,9.0,-999,-99.99,,,-99.99,,2013-08-02 09:02:00,
2013-08-02 02:44:00,60.0,-99.9,30.09,South,178,6.0,9.0,-999,-99.99,,,-99.99,,2013-08-02 09:44:00,
2013-08-02 03:03:00,60.0,-99.9,30.08,SSW,193,5.0,13.0,-999,-99.99,,,-99.99,,2013-08-02 10:03:00,
2013-08-02 03:12:00,60.0,-99.9,30.08,SSW,193,5.0,13.0,-999,-99.99,,,-99.99,,2013-08-02 10:12:00,
2013-08-02 03:23:00,60.0,-99.9,30.08,South,171,6.0,10.0,-999,-99.99,,,-99.99,,2013-08-02 10:23:00,
2013-08-02 03:33:00,60.0,-99.9,30.09,South,184,5.0,12.0,-999,-99.99,,,-99.99,,2013-08-02 10:33:00,
2013-08-02 03:44:00,60.0,-99.9,30.08,South,186,7.0,10.0,-999,-99.99,,,-99.99,,2013-08-02 10:44:00,
2013-08-02 03:52:00,60.0,-99.9,30.08,South,172,8.0,11.0,-999,-99.99,,,-99.99,,2013-08-02 10:52:00,
2013-08-02 04:02:00,60.0,-99.9,30.08,South,176,8.0,12.0,-999,-99.99,,,-99.99,,2013-08-02 11:02:00,
2013-08-02 04:12:00,60.0,-99.9,30.08,SSE,167,6.0,9.0,-999,-99.99,,,-99.99,,2013-08-02 11:12:00,
2013-08-02 04:33:00,60.0,-99.9,30.08,South,174,6.0,11.0,-999,-99.99,,,-99.99,,2013-08-02 11:33:00,
2013-08-02 04:43:00,60.0,-99.9,30.08,SSE,165,7.0,10.0,-999,-99.99,,,-99.99,,2013-08-02 11:43:00,
2013-08-02 05:02:00,60.0,-99.9,30.09,South,184,6.0,8.0,-999,-99.99,,,-99.99,,2013-08-02 12:02:00,
2013-08-02 05:12:00,60.0,-99.9,30.09,SSW,201,5.0,11.0,-999,-99.99,,,-99.99,,2013-08-02 12:12:00,
2013-08-02 05:33:00,60.0,-99.9,30.09,SSW,197,8.0,12.0,-999,-99.99,,,-99.99,,2013-08-02 12:33:00,
2013-08-02 05:43:00,60.0,-99.9,30.09,South,175,6.0,11.0,-999,-99.99,,,-99.99,,2013-08-02 12:43:00,
2013-08-02 05:52:00,60.0,-99.9,30.09,SSW,211,5.0,7.0,-999,-99.99,,,-99.99,,2013-08-02 12:52:00,
2013-08-02 06:03:00,60.0,-99.9,30.09,SSW,209,6.0,11.0,-999,-99.99,,,-99.99,,2013-08-02 13:03:00,
2013-08-02 06:43:00,60.0,-99.9,30.10,South,180,3.0,6.0,-999,-99.99,,,-99.99,,2013-08-02 13:43:00,
2013-08-02 07:02:00,60.0,-99.9,30.10,South,173,5.0,9.0,-999,-99.99,,,-99.99,,2013-08-02 14:02:00,
2013-08-02 07:12:00,59.0,-99.9,30.11,SSW,195,6.0,11.0,-999,-99.99,,,-99.99,,2013-08-02 14:12:00,
2013-08-02 07:43:00,58.0,-99.9,30.12,South,175,5.0,6.0,-999,-99.99,,,-99.99,,2013-08-02 14:43:00,
2013-08-02 07:53:00,58.0,-99.9,30.12,SSE,166,4.0,5.0,-999,-99.99,,,-99.99,,2013-08-02 14:53:00,
2013-08-02 08:03:00,58.0,-99.9,30.12,South,174,5.0,7.0,-999,-99.99,,,-99.99,,2013-08-02 15:03:00,
2013-08-02 08:53:00,59.0,-99.9,30.12,South,174,4.0,6.0,-999,-99.99,,,-99.99,,2013-08-02 15:53:00,
2013-08-02 09:02:00,60.0,-99.9,30.12,South,186,4.0,10.0,-999,-99.99,,,-99.99,,2013-08-02 16:02:00,
2013-08-02 09:32:00,60.0,-99.9,30.12,SSW,211,8.0,12.0,-999,-99.99,,,-99.99,,2013-08-02 16:32:00,
2013-08-02 09:43:00,60.0,-99.9,30.12,South,188,5.0,12.0,-999,-99.99,,,-99.99,,2013-08-02 16:43:00,
2013-08-02 09:53:00,60.0,-99.9,30.12,South,184,4.0,9.0,-999,-99.99,,,-99.99,,2013-08-02 16:53:00,
2013-08-02 10:02:00,59.0,-99.9,30.12,SW,222,6.0,9.0,-999,-99.99,,,-99.99,,2013-08-02 17:02:00,
2013-08-02 10:22:00,59.0,-99.9,30.13,SSW,209,5.0,9.0,-999,-99.99,,,-99.99,,2013-08-02 17:22:00,
2013-08-02 10:43:00,60.0,-99.9,30.13,SSW,197,4.0,6.0,-999,-99.99,,,-99.99,,2013-08-02 17:43:00,
2013-08-02 11:02:00,59.0,-99.9,30.13,South,186,1.0,6.0,-999,-99.99,,,-99.99,,2013-08-02 18:02:00,
2013-08-02 12:03:00,60.0,-99.9,30.13,SSW,198,6.0,9.0,-999,-99.99,,,-99.99,,2013-08-02 19:03:00,
2013-08-02 12:33:00,60.0,-99.9,30.13,SSE,163,6.0,10.0,-999,-99.99,,,-99.99,,2013-08-02 19:33:00,
2013-08-02 12:43:00,61.0,-99.9,30.13,SE,145,4.0,8.0,-999,-99.99,,,-99.99,,2013-08-02 19:43:00,
2013-08-02 13:02:00,61.0,-99.9,30.13,SSE,164,6.0,9.0,-999,-99.99,,,-99.99,,2013-08-02 20:02:00,
2013-08-02 13:23:00,61.0,-99.9,30.13,South,184,4.0,5.0,-999,-99.99,,,-99.99,,2013-08-02 20:23:00,
2013-08-02 13:43:00,62.0,-99.9,30.14,South,171,4.0,8.0,-999,-99.99,,,-99.99,,2013-08-02 20:43:00,
2013-08-02 13:52:00,62.0,-99.9,30.14,SSE,165,3.0,9.0,-999,-99.99,,,-99.99,,2013-08-02 20:52:00,
2013-08-02 14:03:00,61.0,-99.9,30.14,South,169,7.0,8.0,-999,-99.99,,,-99.99,,2013-08-02 21:03:00,
2013-08-02 14:32:00,61.0,-99.9,30.14,South,170,3.0,6.0,-999,-99.99,,,-99.99,,2013-08-02 21:32:00,
2013-08-02 14:43:00,61.0,-99.9,30.14,South,174,3.0,6.0,-999,-99.99,,,-99.99,,2013-08-02 21:43:00,
2013-08-02 15:03:00,61.0,-99.9,30.14,South,169,5.0,6.0,-999,-99.99,,,-99.99,,2013-08-02 22:03:00,
2013-08-02 16:02:00,61.0,-99.9,30.14,SSE,165,2.0,6.0,-999,-99.99,,,-99.99,,2013-08-02 23:02:00,
2013-08-02 16:12:00,61.0,-99.9,30.14,South,172,3.0,7.0,-999,-99.99,,,-99.99,,2013-08-02 23:12:00,
2013-08-02 16:22:00,61.0,-99.9,30.14,SSW,210,4.0,5.0,-999,-99.99,,,-99.99,,2013-08-02 23:22:00,
2013-08-02 16:44:00,61.0,-99.9,30.14,South,175,2.0,3.0,-999,-99.99,,,-99.99,,2013-08-02 23:44:00,
2013-08-02 16:53:00,61.0,-99.9,30.14,SW,233,2.0,4.0,-999,-99.99,,,-99.99,,2013-08-02 23:53:00,
2013-08-02 17:12:00,60.0,-99.9,30.14,WSW,244,3.0,4.0,-999,-99.99,,,-99.99,,2013-08-03 00:12:00,
2013-08-02 17:52:00,61.0,-99.9,30.13,SSE,168,1.0,3.0,-999,-99.99,,,-99.99,,2013-08-03 00:52:00,
2013-08-02 18:03:00,61.0,-99.9,30.13,SSE,168,1.0,3.0,-999,-99.99,,,-99.99,,2013-08-03 01:03:00,
2013-08-02 18:22:00,61.0,-99.9,30.13,SW,215,1.0,2.0,-999,-99.99,,,-99.99,,2013-08-03 01:22:00,
2013-08-02 18:43:00,61.0,-99.9,30.13,SW,222,3.0,3.0,-999,-99.99,,,-99.99,,2013-08-03 01:43:00,
2013-08-02 19:12:00,61.0,-99.9,30.13,SW,231,1.0,2.0,-999,-99.99,,,-99.99,,2013-08-03 02:12:00,
2013-08-02 19:22:00,61.0,-99.9,30.13,West,273,1.0,2.0,-999,-99.99,,,-99.99,,2013-08-03 02:22:00,
2013-08-02 19:43:00,60.0,-99.9,30.13,NW,312,2.0,2.0,-999,-99.99,,,-99.99,,2013-08-03 02:43:00,
2013-08-02 20:43:00,59.0,-99.9,30.13,NW,305,3.0,5.0,-999,-99.99,,,-99.99,,2013-08-03 03:43:00,
2013-08-02 20:53:00,59.0,-99.9,30.13,NW,326,4.0,5.0,-999,-99.99,,,-99.99,,2013-08-03 03:53:00,
2013-08-02 21:02:00,59.0,-99.9,30.14,NW,309,2.0,3.0,-999,-99.99,,,-99.99,,2013-08-03 04:02:00,
2013-08-02 21:22:00,59.0,-99.9,30.14,NW,308,3.0,3.0,-999,-99.99,,,-99.99,,2013-08-03 04:22:00,
2013-08-02 22:02:00,59.0,-99.9,30.14,West,278,2.0,2.0,-999,-99.99,,,-99.99,,2013-08-03 05:02:00,
2013-08-02 23:02:00,59.0,-99.9,30.14,NNW,329,2.0,5.0,-999,-99.99,,,-99.99,,2013-08-03 06:02:00,
2013-08-02 23:33:00,59.0,-99.9,30.14,WNW,299,6.0,6.0,-999,-99.99,,,-99.99,,2013-08-03 06:33:00,
2013-08-02 23:42:00,58.0,-99.9,30.14,NW,309,5.0,5.0,-999,-99.99,,,-99.99,,2013-08-03 06:42:00,